TimeCDT,TemperatureF,Dew PointF,Humidity,Sea Level PressureIn,VisibilityMPH,Wind Direction,Wind SpeedMPH,Gust SpeedMPH,PrecipitationIn,Events,Conditions,WindDirDegrees,DateUTC
12:54 AM,37.0,28.9,73,30.27,10.0,ENE,6.9,-,N/A,,Clear,60,2013-03-29 05:54:00
1:54 AM,37.0,28.0,70,30.26,10.0,East,9.2,-,N/A,,Clear,80,2013-03-29 06:54:00
2:54 AM,37.0,30.0,76,30.25,10.0,East,6.9,-,N/A,,Mostly Cloudy,80,2013-03-29 07:54:00
3:54 AM,37.0,28.9,73,30.23,10.0,ESE,9.2,-,N/A,,Clear,110,2013-03-29 08:54:00
4:54 AM,36.0,28.9,76,30.23,10.0,East,8.1,-,N/A,,Clear,90,2013-03-29 09:54:00
5:54 AM,34.0,28.9,82,30.25,10.0,NE,6.9,-,N/A,,Clear,50,2013-03-29 10:54:00
6:54 AM,35.1,28.9,78,30.26,9.0,East,6.9,-,N/A,,Clear,80,2013-03-29 11:54:00
7:54 AM,36.0,28.9,76,30.27,7.0,East,8.1,-,N/A,,Clear,100,2013-03-29 12:54:00
8:54 AM,39.9,32.0,73,30.27,10.0,ESE,6.9,-,N/A,,Clear,110,2013-03-29 13:54:00
9:54 AM,45.0,34.0,65,30.28,10.0,Calm,Calm,-,N/A,,Clear,0,2013-03-29 14:54:00
10:54 AM,50.0,37.9,63,30.28,10.0,East,3.5,-,N/A,,Clear,80,2013-03-29 15:54:00
11:54 AM,53.1,39.0,59,30.27,10.0,ENE,3.5,-,N/A,,Clear,60,2013-03-29 16:54:00
12:54 PM,55.0,39.9,57,30.26,10.0,ENE,9.2,-,N/A,,Clear,60,2013-03-29 17:54:00
1:54 PM,57.0,39.9,53,30.24,10.0,East,5.8,-,N/A,,Clear,80,2013-03-29 18:54:00
2:54 PM,57.9,39.9,51,30.23,10.0,NE,6.9,-,N/A,,Clear,50,2013-03-29 19:54:00
3:54 PM,57.9,37.0,46,30.21,10.0,East,4.6,-,N/A,,Clear,90,2013-03-29 20:54:00
4:54 PM,57.9,34.0,41,30.20,10.0,Variable,4.6,-,N/A,,Clear,0,2013-03-29 21:54:00
5:54 PM,57.9,34.0,41,30.20,10.0,ENE,3.5,-,N/A,,Clear,60,2013-03-29 22:54:00
6:54 PM,55.0,39.9,57,30.20,10.0,ESE,6.9,-,N/A,,Clear,120,2013-03-29 23:54:00
7:54 PM,48.9,39.9,71,30.21,10.0,SE,6.9,-,N/A,,Clear,130,2013-03-30 00:54:00
8:54 PM,46.9,39.0,74,30.22,10.0,SE,5.8,-,N/A,,Clear,140,2013-03-30 01:54:00
9:54 PM,44.1,37.9,79,30.22,10.0,SE,5.8,-,N/A,,Clear,140,2013-03-30 02:54:00
10:54 PM,43.0,37.0,80,30.22,10.0,SE,5.8,-,N/A,,Clear,140,2013-03-30 03:54:00
11:54 PM,43.0,36.0,76,30.20,10.0,SE,5.8,-,N/A,,Clear,140,2013-03-30 04:54:00